When you browse on this site, cookies collect data to enhance your experience and personalize the content and advertising you see.
Visit our Privacy Policy to learn more. By continuing to use the site, you agree to this use of cookies and data.
  • In France
  • List of Countries
  • For 7 days
  • Water Temperature
  • Satellite Maps
  • Weather Map
  • Weather Widgets
  • user-avatar
    Login

    Hourly Weather Korçe

    Today, 27 June, Thursday

    Time Temperature Precipitation Wind Pressure Humidity
    00:00 +16°C° 0 mm 2 mps 670 mmHg 82%
    01:00 +16°C° 0 mm 2 mps 669 mmHg 81%
    02:00 +16°C° 0 mm 2 mps 669 mmHg 82%
    03:00 +16°C° 0 mm 2 mps 669 mmHg 83%
    04:00 +16°C° 0 mm 2 mps 668 mmHg 83%
    05:00 +17°C° 0 mm 2 mps 669 mmHg 77%
    06:00 +19°C° 0 mm 2 mps 670 mmHg 72%
    07:00 +21°C° 0 mm 2 mps 670 mmHg 66%
    08:00 +23°C° 0 mm 2 mps 671 mmHg 59%
    09:00 +25°C° 0 mm 2 mps 671 mmHg 52%
    10:00 +26°C° 0 mm 3 mps 671 mmHg 45%
    11:00 +27°C° 0 mm 3 mps 671 mmHg 44%
    12:00 +27°C° 0 mm 2 mps 671 mmHg 43%
    13:00 +28°C° 0 mm 2 mps 671 mmHg 41%
    14:00 +28°C° 0 mm 2 mps 670 mmHg 42%
    15:00 +27°C° 0 mm 2 mps 670 mmHg 44%
    16:00 +27°C° 0 mm 2 mps 669 mmHg 45%
    17:00 +25°C° 0 mm 2 mps 669 mmHg 53%
    18:00 +23°C° 0 mm 2 mps 668 mmHg 61%
    19:00 +21°C° 0 mm 1 mps 667 mmHg 69%
    20:00 +20°C° 0 mm 1 mps 667 mmHg 71%
    21:00 +19°C° 0 mm 1 mps 667 mmHg 73%
    22:00 +19°C° 0 mm 1 mps 667 mmHg 75%
    23:00 +18°C° 0 mm 1 mps 667 mmHg 76%

    Tomorrow, 28 June, Friday

    Time Temperature Precipitation Wind Pressure Humidity
    00:00 +18°C° 0 mm 1 mps 666 mmHg 77%
    01:00 +18°C° 0 mm 1 mps 666 mmHg 77%
    02:00 +18°C° 0 mm 1 mps 666 mmHg 78%
    03:00 +16°C° 0 mm 1 mps 665 mmHg 78%
    04:00 +16°C° 0 mm 1 mps 665 mmHg 79%
    05:00 +19°C° 0 mm 1 mps 666 mmHg 72%
    06:00 +21°C° 0 mm 1 mps 666 mmHg 64%
    07:00 +23°C° 0 mm 1 mps 667 mmHg 57%
    08:00 +25°C° 0 mm 1 mps 667 mmHg 52%
    09:00 +26°C° 0 mm 1 mps 668 mmHg 47%
    10:00 +28°C° 0 mm 2 mps 668 mmHg 42%
    11:00 +28°C° 0 mm 2 mps 668 mmHg 41%
    12:00 +29°C° 0 mm 2 mps 668 mmHg 40%
    13:00 +30°C° 0 mm 2 mps 668 mmHg 39%
    14:00 +29°C° 0.1 mm 2 mps 667 mmHg 43%
    15:00 +29°C° 0.1 mm 3 mps 667 mmHg 46%
    16:00 +28°C° 0.1 mm 3 mps 667 mmHg 49%
    17:00 +26°C° 0.2 mm 2 mps 666 mmHg 58%
    18:00 +24°C° 0.2 mm 2 mps 666 mmHg 66%
    19:00 +21°C° 0.2 mm 2 mps 666 mmHg 74%
    20:00 +20°C° 0 mm 2 mps 666 mmHg 77%
    21:00 +19°C° 0 mm 2 mps 666 mmHg 79%
    22:00 +18°C° 0 mm 2 mps 666 mmHg 82%
    23:00 +17°C° 0 mm 2 mps 665 mmHg 82%

    Day after tomorrow, 29 June, Saturday

    Time Temperature Precipitation Wind Pressure Humidity
    00:00 +16°C° 0 mm 2 mps 665 mmHg 82%
    01:00 +16°C° 0 mm 2 mps 665 mmHg 82%
    02:00 +15°C° 0 mm 2 mps 665 mmHg 82%
    03:00 +14°C° 0 mm 2 mps 665 mmHg 82%
    04:00 +13°C° 0 mm 3 mps 665 mmHg 81%
    05:00 +14°C° 0 mm 3 mps 665 mmHg 74%
    06:00 +17°C° 0 mm 3 mps 666 mmHg 66%
    07:00 +18°C° 0 mm 3 mps 667 mmHg 59%
    08:00 +20°C° 0 mm 2 mps 667 mmHg 52%
    09:00 +21°C° 0 mm 2 mps 668 mmHg 46%
    10:00 +24°C° 0 mm 2 mps 668 mmHg 39%
    11:00 +25°C° 0 mm 2 mps 669 mmHg 38%
    12:00 +26°C° 0 mm 2 mps 669 mmHg 38%
    13:00 +26°C° 0 mm 2 mps 669 mmHg 37%
    14:00 +26°C° 0 mm 2 mps 669 mmHg 38%
    15:00 +26°C° 0 mm 2 mps 669 mmHg 39%
    16:00 +25°C° 0 mm 2 mps 668 mmHg 40%
    17:00 +23°C° 0 mm 2 mps 668 mmHg 47%
    18:00 +20°C° 0 mm 2 mps 668 mmHg 53%
    19:00 +18°C° 0 mm 2 mps 667 mmHg 60%
    20:00 +17°C° 0 mm 2 mps 667 mmHg 62%
    21:00 +16°C° 0 mm 2 mps 667 mmHg 63%
    22:00 +15°C° 0 mm 2 mps 667 mmHg 64%
    23:00 +15°C° 0 mm 2 mps 667 mmHg 65%

    30 June, Sunday

    Time Temperature Precipitation Wind Pressure Humidity
    00:00 +14°C° 0 mm 2 mps 667 mmHg 66%
    01:00 +14°C° 0 mm 2 mps 667 mmHg 67%
    02:00 +13°C° 0 mm 2 mps 667 mmHg 67%
    03:00 +13°C° 0 mm 2 mps 667 mmHg 67%
    04:00 +12°C° 0 mm 2 mps 667 mmHg 67%
    05:00 +14°C° 0 mm 2 mps 668 mmHg 63%
    06:00 +16°C° 0 mm 2 mps 669 mmHg 58%
    07:00 +18°C° 0 mm 2 mps 669 mmHg 54%
    08:00 +20°C° 0 mm 2 mps 670 mmHg 48%
    09:00 +23°C° 0 mm 2 mps 671 mmHg 42%
    10:00 +25°C° 0 mm 2 mps 671 mmHg 35%
    11:00 +25°C° 0 mm 2 mps 671 mmHg 34%
    12:00 +26°C° 0 mm 2 mps 672 mmHg 33%
    13:00 +26°C° 0 mm 2 mps 672 mmHg 32%
    14:00 +26°C° 0 mm 2 mps 671 mmHg 34%
    15:00 +26°C° 0 mm 2 mps 671 mmHg 36%
    16:00 +26°C° 0 mm 2 mps 671 mmHg 38%
    17:00 +24°C° 0 mm 2 mps 670 mmHg 47%
    18:00 +20°C° 0 mm 2 mps 670 mmHg 55%
    19:00 +19°C° 0 mm 1 mps 670 mmHg 64%
    20:00 +18°C° 0 mm 1 mps 670 mmHg 66%
    21:00 +16°C° 0 mm 2 mps 670 mmHg 68%
    22:00 +15°C° 0 mm 2 mps 670 mmHg 70%
    23:00 +15°C° 0 mm 2 mps 670 mmHg 72%

    1 July, Monday

    Time Temperature Precipitation Wind Pressure Humidity
    00:00 +15°C° 0 mm 2 mps 669 mmHg 75%
    01:00 +14°C° 0 mm 2 mps 669 mmHg 77%
    02:00 +14°C° 0 mm 2 mps 669 mmHg 79%
    03:00 +14°C° 0 mm 2 mps 669 mmHg 81%
    04:00 +14°C° 0 mm 2 mps 669 mmHg 82%
    05:00 +16°C° 0 mm 2 mps 669 mmHg 76%
    06:00 +18°C° 0 mm 2 mps 670 mmHg 70%
    07:00 +21°C° 0 mm 1 mps 671 mmHg 63%
    08:00 +22°C° 0 mm 1 mps 671 mmHg 57%
    09:00 +24°C° 0 mm 1 mps 672 mmHg 50%
    10:00 +26°C° 0 mm 1 mps 672 mmHg 44%
    11:00 +27°C° 0 mm 2 mps 672 mmHg 42%
    12:00 +27°C° 0 mm 2 mps 672 mmHg 39%
    13:00 +28°C° 0 mm 2 mps 672 mmHg 37%
    14:00 +28°C° 0 mm 2 mps 672 mmHg 39%
    15:00 +27°C° 0 mm 2 mps 671 mmHg 41%
    16:00 +27°C° 0 mm 2 mps 671 mmHg 44%
    17:00 +25°C° 0 mm 2 mps 671 mmHg 52%
    18:00 +23°C° 0 mm 2 mps 670 mmHg 61%
    19:00 +20°C° 0 mm 1 mps 669 mmHg 70%
    20:00 +20°C° 0 mm 1 mps 669 mmHg 71%
    21:00 +18°C° 0 mm 2 mps 669 mmHg 73%
    22:00 +17°C° 0 mm 2 mps 669 mmHg 75%
    23:00 +16°C° 0 mm 2 mps 669 mmHg 76%

    2 July, Tuesday

    Time Temperature Precipitation Wind Pressure Humidity
    00:00 +16°C° 0 mm 2 mps 668 mmHg 77%
    01:00 +15°C° 0 mm 1 mps 668 mmHg 77%
    02:00 +15°C° 0 mm 1 mps 668 mmHg 77%
    03:00 +15°C° 0 mm 1 mps 668 mmHg 77%
    04:00 +14°C° 0 mm 1 mps 667 mmHg 77%
    05:00 +18°C° 0 mm 1 mps 668 mmHg 70%
    06:00 +20°C° 0 mm 1 mps 669 mmHg 62%
    07:00 +22°C° 0 mm 1 mps 669 mmHg 55%
    08:00 +24°C° 0 mm 1 mps 669 mmHg 49%
    09:00 +26°C° 0 mm 1 mps 670 mmHg 42%
    10:00 +28°C° 0 mm 1 mps 670 mmHg 36%
    11:00 +29°C° 0 mm 1 mps 670 mmHg 34%
    12:00 +29°C° 0 mm 2 mps 670 mmHg 32%
    13:00 +30°C° 0 mm 2 mps 670 mmHg 31%
    14:00 +30°C° 0 mm 2 mps 669 mmHg 33%
    15:00 +29°C° 0 mm 3 mps 669 mmHg 35%
    16:00 +29°C° 0 mm 3 mps 669 mmHg 37%
    17:00 +26°C° 0 mm 3 mps 668 mmHg 47%
    18:00 +24°C° 0 mm 2 mps 668 mmHg 58%
    19:00 +21°C° 0 mm 1 mps 667 mmHg 68%
    20:00 +21°C° 0 mm 1 mps 667 mmHg 68%
    21:00 +20°C° 0 mm 1 mps 667 mmHg 68%
    22:00 +19°C° 0 mm 1 mps 667 mmHg 67%
    23:00 +19°C° 0 mm 1 mps 666 mmHg 66%
    Show more